Flag for Croatia Weather past 2 weeks in Zagreb, Croatia

Now
41 °F

Passing clouds.


Feels Like: 38 °F
Forecast: 34 / 53 °F
Wind: 5 mph from North

Location: Zagreb / Pleso

Current Time: Dec 20, 2014 at 11:35:24 PM

Latest Report: Dec 20, 2014 at 11:00 PM


Visibility: N/A

Pressure: 30.09 "Hg

Humidity: 93%

Dew point: 39 °F

Location of ZagrebLocation

Historic Weather in Zagreb — Graph

°F

Zagreb temperature yesterday

Maximum temperature yesterday: 59 °F (at 2:00 PM)
Minimum temperature yesterday: 39 °F (at 12:00 AM)
Average temperature yesterday: 47 °F

Past Weeks' High & Low Weather Summary

 TemperatureHumidityPressure
High61 °F (Dec 15, 2:30 PM)100% (Dec 6, 6:00 AM)30.27 "Hg (Dec 6, 6:00 AM)
Low25 °F (Dec 12, 7:00 AM)55% (Dec 13, 12:00 PM)29.80 "Hg (Dec 16, 9:30 PM)
Average42 °F84%30.07 "Hg
* Reported Dec 5 10:00 PM — Dec 20 10:30 PM, Zagreb, Weather by CustomWeather, © 2014

Note: Actual official high and low records may vary slightly from our data, if they occured in-between our weather recording intervals... More about our weather records

Advertising

Zagreb weather history for previous 24 hours

 ConditionsComfort  
Time TempWeatherWind HumidityBarometerVisibility
10:30 PM
Dec 20
41 °FClear.5 mph93%30.07 "Hg10 mi
10:00 PM39 °FPassing clouds.6 mph93%30.04 "HgN/A
9:30 PM43 °FClear.3 mph87%30.04 "Hg10 mi
9:00 PM43 °FClear.2 mph93%30.04 "Hg10 mi
8:30 PM41 °FPassing clouds.3 mph93%30.04 "HgN/A
8:00 PM43 °FPassing clouds.5 mph87%30.07 "HgN/A
7:30 PM45 °FClear.5 mph87%30.07 "Hg10 mi
7:00 PM46 °FClear.3 mph87%30.07 "Hg10 mi
6:00 PM46 °FPassing clouds.No wind82%30.07 "HgN/A
5:30 PM48 °FClear.2 mph82%30.09 "Hg10 mi
5:00 PM50 °FClear.No wind76%30.09 "Hg10 mi
4:30 PM52 °FClear.No wind72%30.09 "Hg10 mi
4:00 PM55 °FSunny.No wind67%30.09 "Hg10 mi
3:30 PM57 °FSunny.No wind63%30.09 "Hg10 mi
3:00 PM57 °FSunny.1 mph59%30.12 "Hg10 mi
2:30 PM57 °FSunny.2 mph63%30.12 "Hg10 mi
2:00 PM57 °FPassing clouds.3 mph63%30.12 "HgN/A
1:30 PM57 °FPassing clouds.5 mph63%30.15 "HgN/A
1:00 PM57 °FPassing clouds.7 mph63%30.15 "HgN/A
12:30 PM55 °FPassing clouds.6 mph67%30.18 "HgN/A
12:00 PM55 °FPassing clouds.8 mph67%30.18 "HgN/A
11:30 AM54 °FPassing clouds.6 mph72%30.18 "HgN/A
11:00 AM52 °FSunny.6 mph77%30.18 "Hg10 mi
10:30 AM50 °FPassing clouds.5 mph76%30.21 "HgN/A
10:00 AM50 °FPassing clouds.3 mph76%30.18 "HgN/A
9:30 AM48 °FSunny.5 mph82%30.18 "Hg10 mi
9:00 AM45 °FPassing clouds.6 mph87%30.18 "HgN/A
8:30 AM41 °FSunny.1 mph93%30.15 "Hg10 mi
8:00 AM41 °FPassing clouds.5 mph93%30.12 "HgN/A
7:30 AM43 °FClear.7 mph87%30.12 "Hg10 mi
7:00 AM41 °FClear.6 mph93%30.12 "Hg10 mi
6:30 AM43 °FClear.8 mph87%30.09 "Hg10 mi
6:00 AM45 °FPassing clouds.8 mph81%30.09 "HgN/A
5:30 AM43 °FClear.2 mph87%30.09 "Hg10 mi
5:00 AM43 °FClear.9 mph87%30.07 "Hg10 mi
4:30 AM43 °FClear.6 mph87%30.07 "Hg10 mi
4:00 AM43 °FClear.6 mph87%30.07 "Hg10 mi
3:30 AM43 °FClear.7 mph87%30.07 "Hg10 mi
3:00 AM41 °FClear.7 mph93%30.04 "Hg10 mi
2:30 AM43 °FPassing clouds.3 mph87%30.04 "HgN/A
2:00 AM43 °FClear.7 mph87%30.04 "Hg10 mi
1:30 AM41 °FClear.6 mph93%30.04 "Hg10 mi
1:00 AM43 °FClear.7 mph87%30.04 "Hg10 mi
12:30 AM43 °FClear.7 mph87%30.04 "Hg10 mi
12:00 AM43 °FClear.7 mph87%30.04 "Hg10 mi
11:30 PM
Dec 19
43 °FClear.7 mph87%30.04 "Hg10 mi
11:00 PM45 °FClear.8 mph87%30.04 "Hg10 mi
Weather by CustomWeather, © 2014

See weather overviewHow to use our weather pages